Location: Caltech
(34.1382°N, 118.1253°W)
Time: 17:08:27
(UTC-07:00)

COSMOS 2428 - Visible Passes

Search period start: 28 August 2016 00:00
Search period end: 07 September 2016 00:00
Orbit: 844 x 859 km, 70.9° (Epoch: 28 August)

Date Brightness Start Highest point End Pass type
(mag) Time Alt. Az. Time Alt. Az. Time Alt. Az.
28 Aug 5.6 01:07:00 11° NNW 01:07:00 11° NNW 01:07:17 10° N visible
29 Aug 5.6 00:54:55 11° NNW 00:54:55 11° NNW 00:55:07 10° N visible
30 Aug 5.6 00:42:48 11° NNW 00:42:48 11° NNW 00:42:59 10° N visible
31 Aug 5.6 00:30:38 11° NNW 00:30:38 11° NNW 00:30:50 10° N visible
01 Sep 5.6 00:18:26 11° NNW 00:18:26 11° NNW 00:18:42 10° N visible
02 Sep 5.6 00:06:11 11° NNW 00:06:11 11° NNW 00:06:33 10° N visible
02 Sep 5.5 23:53:51 12° NNW 23:53:51 12° NNW 23:54:24 10° N visible
03 Sep 5.5 23:41:25 13° NNW 23:41:25 13° NNW 23:42:15 10° NNW visible
04 Sep 5.1 21:46:54 10° NNE 21:46:54 10° NNE 21:46:58 10° NNE visible
04 Sep 5.4 23:28:52 14° NNW 23:28:52 14° NNW 23:30:06 10° NNW visible
05 Sep 4.8 21:34:10 13° NE 21:34:10 13° NE 21:34:50 10° NNE visible
05 Sep 5.2 23:16:06 16° NNW 23:16:06 16° NNW 23:17:58 10° NNW visible
06 Sep 4.4 21:21:04 19° NE 21:21:04 19° NE 21:22:42 10° NNE visible
06 Sep 5.1 23:02:58 19° NW 23:02:58 19° NW 23:05:50 10° NNW visible
